User: anonymous   Login
Location: North Smoke Tower Site
(30.5430°N, 82.3390°W)
Time: 01:44:21
(UTC-05:00)
Language:

Cosmos 1980 Rocket - Orbit

View from above orbital plane
View from above orbital plane
View from above satellite
View from above satellite

Ground track
Ground track

The orbit data is extracted from the following two-line orbital elements,

1 19650U 88102B   18052.56021961 -.00000138  00000-0 -45999-4 0  9990
2 19650  70.9970 210.7295 0013995 172.4540 187.6797 14.15764118511281
Epoch (UTC): 21 February 2018 13:26:42
Eccentricity: 0.0013995
inclination: 70.9970°
perigee height: 829 km
apogee height: 850 km
right ascension of ascending node: 210.7295°
argument of perigee: 172.4540°
revolutions per day: 14.15764118
mean anomaly at epoch: 187.6797°
orbit number at epoch: 51128

The dashed part of the orbit path shows where the satellite is in the earth's shadow,  

DLR